Tuscaloosa, AL

4:27 PM CST on November 16, 2019 (GMT -0600)
Tuscaloosa Municipal

Weather History for KTCL - October, 2019

Change the Weather History Date:

Tuesday, October 22, 2019

  Actual Average Record
Temperature  
Mean Temperature 59 °F 62 °F  
Max Temperature 72 °F 75 °F 91 °F (1953)
Min Temperature 45 °F 50 °F 30 °F (1987)
Degree Days  
Heating Degree Days 6 5  
Month to date heating degree days 44 58  
Since 1 July heating degree days 44 65  
Growing Degree Days 12 (Base 50)    
Moisture  
Dew Point 49 °F    
Average Humidity 63    
Maximum Humidity 100    
Minimum Humidity 25    
Precipitation  
Precipitation 0.00 in 0.12 in 1.03 in (2007)
Month to date precipitation 2.06 2.53  
Year to date precipitation 42.16 41.92  
Sea Level Pressure  
Sea Level Pressure 30.04 in    
Wind  
Wind Speed 6 mph (WNW)    
Max Wind Speed 20 mph    
Max Gust Speed 23 mph    
Visibility 8 miles    
Events Fog    
T = Trace of Precipitation, MM = Missing Value Source: NWS Daily Summary

Daily Weather History Graph

Daily Weather History Graph

Search for Another Location

Airport or City:

Astronomy

Oct. 22, 2019 Rise Set
Actual Time 7:00 AM CDT 6:09 PM CDT
Civil Twilight 6:35 AM CDT 6:34 PM CDT
Nautical Twilight 6:06 AM CDT 7:03 PM CDT
Astronomical Twilight 5:37 AM CDT 7:31 PM CDT
Moon 12:35 AM CDT (10/22) 2:54 PM CDT (10/22)
Length of Visible Light 11h 59m
Length of Day
11h 08m
Last Quarter, 37% of the Moon is Illuminated
Oct 22
Last Quarter
Oct 27
New
Nov 4
First Quarter
Nov 12
Full
Nov 19
Last Quarter

Hourly Weather History & Observations

Time (CDT) Temp. Dew Point Humidity Pressure Visibility Wind Dir Wind Speed Gust Speed Precip Events Conditions
12:37 AM 66.0 °F 63.0 °F 90% 29.91 in 10.0 mi NW 4.6 mph - N/A   Overcast
12:53 AM 66.0 °F 63.0 °F 90% 29.91 in 10.0 mi Variable 4.6 mph - N/A   Overcast
1:53 AM 64.9 °F 62.1 °F 90% 29.93 in 10.0 mi NW 5.8 mph - N/A   Overcast
2:12 AM 64.9 °F 62.1 °F 90% 29.94 in 10.0 mi WNW 4.6 mph - N/A   Overcast
2:53 AM 64.9 °F 62.1 °F 90% 29.95 in 10.0 mi WNW 6.9 mph - N/A   Overcast
3:53 AM 63.0 °F 57.9 °F 84% 29.97 in 10.0 mi NW 9.2 mph - N/A   Mostly Cloudy
4:53 AM 61.0 °F 55.0 °F 81% 29.98 in 10.0 mi NW 5.8 mph - N/A   Partly Cloudy
5:53 AM 59.0 °F 55.9 °F 90% 30.00 in 8.0 mi Calm Calm - N/A   Clear
6:53 AM 55.9 °F 54.0 °F 93% 30.02 in 4.0 mi Calm Calm - N/A   Partly Cloudy
6:56 AM 55.9 °F 54.0 °F 93% 30.03 in 1.8 mi Calm Calm - N/A   Partly Cloudy
7:09 AM 55.9 °F 54.0 °F 93% 30.03 in 4.0 mi Calm Calm - N/A   Partly Cloudy
7:34 AM 55.0 °F 54.0 °F 96% 30.04 in 1.0 mi Calm Calm - N/A   Mist
7:38 AM 54.0 °F 53.1 °F 97% 30.04 in 0.2 mi Calm Calm - N/A Fog Fog
7:47 AM 55.4 °F 53.6 °F 94% 30.04 in 1.0 mi Calm Calm - N/A   Mist
7:49 AM 55.4 °F 53.6 °F 94% 30.04 in 2.0 mi Calm Calm - N/A   Partly Cloudy
7:53 AM 55.9 °F 55.0 °F 97% 30.04 in 4.0 mi Calm Calm - N/A   Partly Cloudy
8:53 AM 60.1 °F 55.0 °F 83% 30.06 in 10.0 mi West 5.8 mph - N/A   Clear
9:53 AM 64.0 °F 53.1 °F 67% 30.08 in 10.0 mi West 6.9 mph - N/A   Clear
10:53 AM 66.0 °F 52.0 °F 60% 30.09 in 10.0 mi WSW 6.9 mph - N/A   Clear
11:53 AM 70.0 °F 43.0 °F 38% 30.08 in 10.0 mi Variable 5.8 mph - N/A   Clear
12:53 PM 71.1 °F 36.0 °F 28% 30.06 in 10.0 mi West 10.4 mph 19.6 mph N/A   Clear
1:53 PM 71.1 °F 36.0 °F 28% 30.05 in 10.0 mi West 10.4 mph - N/A   Clear
2:53 PM 71.1 °F 36.0 °F 28% 30.04 in 10.0 mi WNW 11.5 mph 20.7 mph N/A   Clear
3:53 PM 71.1 °F 33.1 °F 25% 30.04 in 10.0 mi West 16.1 mph - N/A   Clear
4:53 PM 69.1 °F 37.0 °F 31% 30.04 in 10.0 mi West 9.2 mph - N/A   Clear
5:53 PM 66.0 °F 37.0 °F 34% 30.06 in 10.0 mi WNW 8.1 mph - N/A   Clear
6:53 PM 61.0 °F 39.9 °F 46% 30.08 in 10.0 mi WNW 3.5 mph - N/A   Clear
7:53 PM 57.9 °F 41.0 °F 53% 30.11 in 10.0 mi NW 3.5 mph - N/A   Clear
8:53 PM 55.0 °F 41.0 °F 59% 30.13 in 10.0 mi WNW 4.6 mph - N/A   Clear
9:53 PM 54.0 °F 41.0 °F 62% 30.14 in 10.0 mi NW 3.5 mph - N/A   Clear
10:53 PM 52.0 °F 41.0 °F 66% 30.15 in 10.0 mi Calm Calm - N/A   Clear
11:53 PM 46.9 °F 42.1 °F 83% 30.15 in 10.0 mi Calm Calm - N/A   Clear